Location: Unspecified
(47.6577°N, 23.5639°E)
Time: 05:05:41
(UTC+02:00)

ISS - Pass Details

Date: 10 February 2017
Orbit: 399 x 408 km, 51.6° (Epoch: 28 February)

Event Time Altitude Azimuth Distance (km) Brightness Sun altitude
Rises 20:18:41 0° 292° (WNW) 2,323 1.7 -26.9°
Reaches altitude 10° 20:20:50 10° 285° (WNW) 1,459 0.5 -27.3°
Enters shadow 20:22:05 20° 275° (W) 988 -0.6 -27.5°
